Weather History for Newport News, VA

Change the Weather History Date:

Sunday, December 9, 2012

  Actual Average Record
Temperature  
Mean Temperature 55 °F -  
Max Temperature 66 °F 57 °F 79 °F (1978)
Min Temperature 44 °F 38 °F 19 °F (2010)
Degree Days  
Heating Degree Days 10    
Growing Degree Days 5 (Base 50)    
Moisture  
Dew Point 49 °F    
Average Humidity 84    
Maximum Humidity 93    
Minimum Humidity 68    
Precipitation  
Precipitation 0.06 in - - ()
Sea Level Pressure  
Sea Level Pressure 30.09 in    
Wind  
Wind Speed 3 mph (SSW)    
Max Wind Speed 12 mph    
Max Gust Speed -    
Visibility 3 miles    
Events Fog , Rain    
Averages and records for this station are not official NWS values.
T = Trace of Precipitation, MM = Missing Value Source: NWS Daily Summary

Daily Weather History Graph

Daily Weather History Graph

Search for Another Location

Airport:

Trip Planner

Search our weather history database for the weather conditions in past years. The results will help you decide how hot, cold, wet, or windy it might be!

Date:

Astronomy

Dec. 09, 2012 Rise Set
Actual Time 7:08 AM EST 4:48 PM EST
Civil Twilight 6:39 AM EST 5:17 PM EST
Nautical Twilight 6:06 AM EST 5:50 PM EST
Astronomical Twilight 5:35 AM EST 6:21 PM EST
Moon 2:42 AM EST (12/9) 1:50 PM EST (12/9)
Length of Visible Light 10h 38m
Length of Day
9h 40m
Waning Crescent, 19% of the Moon is Illuminated
Dec 9
Waning Crescent
Dec 13
New
Dec 20
First Quarter
Dec 28
Full
Jan 4
Last Quarter

Hourly Weather History & Observations

Time (EST) Temp. Dew Point Humidity Pressure Visibility Wind Dir Wind Speed Gust Speed Precip Events Conditions
12:54 AM 55.0 °F 48.9 °F 80% 30.04 in 7.0 mi WSW 5.8 mph - N/A   Clear
1:54 AM 55.0 °F 50.0 °F 83% 30.05 in 7.0 mi WSW 6.9 mph - N/A   Clear
2:54 AM 55.0 °F 48.9 °F 80% 30.06 in 7.0 mi WSW 4.6 mph - N/A   Clear
3:41 AM 51.8 °F 48.2 °F 88% 30.07 in 1.8 mi SW 3.5 mph - N/A   Clear
3:54 AM 51.1 °F 46.9 °F 86% 30.06 in 2.0 mi WSW 3.5 mph - N/A   Clear
3:58 AM 51.8 °F 48.2 °F 88% 30.07 in 0.8 mi Calm Calm - N/A   Mist
4:08 AM 50.0 °F 46.4 °F 87% 30.07 in 0.2 mi SW 3.5 mph - N/A Fog Fog
4:14 AM 51.8 °F 48.2 °F 88% 30.07 in 1.0 mi Calm Calm - N/A   Mist
4:22 AM 51.8 °F 48.2 °F 88% 30.07 in 1.5 mi Calm Calm - N/A   Partly Cloudy
4:30 AM 48.2 °F 46.4 °F 93% 30.07 in 0.2 mi SW 4.6 mph - N/A Fog Fog
4:54 AM 51.1 °F 48.0 °F 89% 30.07 in 1.5 mi Calm Calm - N/A   Scattered Clouds
5:10 AM 50.0 °F 46.4 °F 87% 30.08 in 0.2 mi Calm Calm - N/A Fog Fog
5:23 AM 48.2 °F 44.6 °F 87% 30.08 in 0.2 mi Calm Calm - N/A Fog Fog
5:32 AM 50.0 °F 46.4 °F 87% 30.09 in 0.2 mi SW 3.5 mph - N/A Fog Fog
5:42 AM 50.0 °F 46.4 °F 87% 30.09 in 0.2 mi Calm Calm - N/A Fog Fog
5:54 AM 51.1 °F 46.9 °F 86% 30.09 in 0.5 mi Calm Calm - N/A Fog Fog
6:12 AM 46.4 °F 44.6 °F 93% 30.10 in 0.2 mi Calm Calm - N/A Fog Fog
6:19 AM 46.4 °F 42.8 °F 87% 30.11 in 0.2 mi Calm Calm - N/A Fog Fog
6:54 AM 48.0 °F 44.1 °F 86% 30.11 in 0.2 mi Calm Calm - N/A Fog Fog
7:15 AM 44.6 °F 42.8 °F 93% 30.12 in 0.2 mi Calm Calm - N/A Fog Fog
7:36 AM 48.2 °F 44.6 °F 87% 30.11 in 0.2 mi Calm Calm - N/A Fog Fog
7:43 AM 48.2 °F 44.6 °F 87% 30.12 in 0.8 mi Calm Calm - N/A   Mostly Cloudy
7:51 AM 50.0 °F 46.4 °F 87% 30.11 in 1.8 mi Calm Calm - N/A   Mostly Cloudy
7:54 AM 50.0 °F 46.0 °F 86% 30.12 in 6.0 mi Calm Calm - N/A   Mostly Cloudy
8:01 AM 51.8 °F 48.2 °F 88% 30.13 in 1.8 mi West 3.5 mph - N/A   Mostly Cloudy
8:14 AM 53.6 °F 48.2 °F 82% 30.13 in 2.0 mi SSW 3.5 mph - N/A   Overcast
8:54 AM 55.9 °F 52.0 °F 87% 30.13 in 2.0 mi Calm Calm - 0.03 in Rain Light Rain
9:12 AM 57.2 °F 53.6 °F 88% 30.14 in 1.8 mi SSW 4.6 mph - 0.02 in Rain Light Rain
9:17 AM 57.2 °F 53.6 °F 88% 30.14 in 3.0 mi SSW 6.9 mph - 0.02 in Rain Light Rain
9:54 AM 59.0 °F 54.0 °F 83% 30.14 in 4.0 mi SSW 4.6 mph - 0.02 in   Haze
10:54 AM 62.1 °F 55.0 °F 78% 30.13 in 4.0 mi SW 3.5 mph - 0.01 in   Haze
11:54 AM 64.0 °F 55.9 °F 75% 30.11 in 6.0 mi West 5.8 mph - N/A   Haze
12:54 PM 64.9 °F 55.9 °F 73% 30.09 in 6.0 mi SSW 4.6 mph - N/A   Haze
1:54 PM 66.9 °F 55.9 °F 68% 30.08 in 7.0 mi Calm Calm - 0.00 in Rain Light Rain
2:54 PM 63.0 °F 55.0 °F 75% 30.08 in 4.0 mi ENE 6.9 mph - N/A   Haze
3:54 PM 61.0 °F 54.0 °F 78% 30.08 in 4.0 mi NE 4.6 mph - N/A   Haze
4:54 PM 57.9 °F 53.1 °F 84% 30.09 in 4.0 mi ENE 4.6 mph - N/A   Haze
5:54 PM 55.9 °F 51.1 °F 84% 30.09 in 2.5 mi ENE 3.5 mph - N/A   Haze
6:54 PM 54.0 °F 50.0 °F 86% 30.08 in 2.5 mi East 3.5 mph - N/A   Partly Cloudy
7:06 PM 53.6 °F 50.0 °F 88% 30.08 in 3.0 mi ENE 3.5 mph - N/A   Mostly Cloudy
7:54 PM 53.1 °F 48.9 °F 86% 30.07 in 3.0 mi Calm Calm - N/A   Clear
8:54 PM 52.0 °F 48.0 °F 86% 30.05 in 3.0 mi Calm Calm - N/A   Clear
9:54 PM 63.0 °F 53.1 °F 70% 30.03 in 3.0 mi South 10.4 mph - N/A   Haze
10:54 PM 64.0 °F 54.0 °F 70% 30.02 in 10.0 mi South 11.5 mph - N/A   Clear
11:54 PM 62.1 °F 55.0 °F 78% 30.00 in 10.0 mi South 6.9 mph - N/A   Clear